Location: Petruro
(41.0333°N, 14.7833°E)
Time: 13:06:42
(UTC+00:00)

Cosmos 1825 - Visible Passes

Search period start: 22 October 2021 00:00
Search period end: 01 November 2021 00:00
Orbit: 499 x 506 km, 82.5° (Epoch: 22 October)

Date Brightness Start Highest point End Pass type
(mag) Time Alt. Az. Time Alt. Az. Time Alt. Az.
24 Oct 4.7 17:59:33 10° N 17:59:51 12° N 17:59:51 12° N visible
25 Oct 4.2 17:40:43 10° N 17:41:33 15° NNE 17:41:33 15° NNE visible
26 Oct 3.8 17:21:56 10° NNE 17:23:26 19° NE 17:23:26 19° NE visible
26 Oct 5.2 18:57:39 10° NW 18:58:14 13° NW 18:58:14 13° NW visible
27 Oct 3.6 17:03:17 10° NNE 17:05:36 18° ENE 17:05:36 18° ENE visible
27 Oct 4.5 18:38:17 10° NNW 18:40:26 23° WNW 18:40:26 23° WNW visible
28 Oct 3.9 16:44:48 10° NE 16:46:53 14° ENE 16:48:19 12° E visible
28 Oct 3.7 18:19:01 10° NNW 18:22:28 35° W 18:23:12 32° WSW visible
29 Oct 4.1 16:27:00 10° ENE 16:27:44 10° ENE 16:28:29 10° E visible
29 Oct 3.0 17:59:51 10° NNW 18:03:30 49° W 18:07:07 10° S visible
30 Oct 2.3 17:40:45 10° NNW 17:44:30 71° W 17:48:14 10° S visible
31 Oct 2.0 17:21:43 10° N 17:25:29 82° E 17:29:14 10° S visible
